Location: Namasale
(1.5000°N, 32.6167°E)
Time: 18:55:11
(UTC+00:00)

Vanguard 1 Rocket - Pass Details

Date: 21 April 2021
Orbit: 652 x 4224 km, 34.3° (Epoch: 09 May)

Event Time Altitude Azimuth Distance (km) Brightness Sun altitude
Rises 16:25:36 0° 337° (NNW) 3,313 10.8 -8.8°
Reaches altitude 10° 16:28:21 10° 355° (N) 2,646 10.0 -9.5°
Maximum altitude 16:33:03 21° 44° (NE) 2,460 9.3 -10.6°
Enters shadow 16:38:53 12° 85° (E) 3,769 9.9 -12.1°
Drops below altitude 10° 16:39:58 10° 89° (E) 4,082 - -12.3°
Sets 16:45:37 0° 102° (ESE) 5,801 - -13.7°
